User: anonymous
Location: Unspecified
(0.0000°N, 0.0000°E)
Time: 06:12:54
(UTC+02:00)
Language:

Cosmos 1263 Rocket - Orbit

View from above orbital plane
View from above orbital plane
View from above satellite
View from above satellite

Ground track
Ground track

The orbit data is extracted from the following two-line orbital elements,

1 12389U 81033B   14207.72620955  .00019765  00000-0  29253-3 0   294
2 12389 082.8725 069.4625 0203757 332.5615 066.6282 15.34703407715780
Epoch (UTC): 26 July 2014 17:25:44
Eccentricity: 0.0203757
inclination: 82.8725°
perigee height: 322 km
apogee height: 601 km
right ascension of ascending node: 69.4625°
argument of perigee: 332.5615°
revolutions per day: 15.34703407
mean anomaly at epoch: 66.6282°
orbit number at epoch: 71578

The dashed part of the orbit path shows where the satellite is in the earth's shadow,  

DLR